Time,TemperatureF,DewpointF,PressureIn,WindDirection,WindDirectionDegrees,WindSpeedMPH,WindSpeedGustMPH,Humidity,HourlyPrecipIn,Conditions,Clouds,dailyrainin,SoftwareType,DateUTC
2013-04-27 00:03:00,56.0,49.0,30.43,SSW,205,0.0,-999.0,78,-99.99,,,-99.99,,2013-04-27 04:03:00,
2013-04-27 00:13:00,56.0,49.0,30.43,SSW,205,0.0,-999.0,78,-99.99,,,-99.99,,2013-04-27 04:13:00,
2013-04-27 00:23:00,56.0,50.0,30.44,SSW,205,0.0,-999.0,80,-99.99,,,-99.99,,2013-04-27 04:23:00,
2013-04-27 00:33:00,56.0,50.0,30.45,SSW,205,0.0,-999.0,80,-99.99,,,-99.99,,2013-04-27 04:33:00,
2013-04-27 00:43:00,56.0,50.0,30.45,SSW,205,0.0,-999.0,80,-99.99,,,-99.99,,2013-04-27 04:43:00,
2013-04-27 00:53:00,56.0,51.0,30.45,SSW,205,0.0,-999.0,84,-99.99,,,-99.99,,2013-04-27 04:53:00,
2013-04-27 01:02:00,55.0,50.0,30.45,SSW,205,0.0,-999.0,84,-99.99,,,-99.99,,2013-04-27 05:02:00,
2013-04-27 01:12:00,55.0,50.0,30.45,SSW,205,0.0,-999.0,84,-99.99,,,-99.99,,2013-04-27 05:12:00,
2013-04-27 01:22:00,55.0,51.0,30.45,SSW,205,0.0,-999.0,86,-99.99,,,-99.99,,2013-04-27 05:22:00,
2013-04-27 01:32:00,55.0,51.0,30.44,SSW,205,0.0,-999.0,87,-99.99,,,-99.99,,2013-04-27 05:32:00,
2013-04-27 01:42:00,55.0,51.0,30.44,SSW,205,0.0,-999.0,87,-99.99,,,-99.99,,2013-04-27 05:42:00,
2013-04-27 01:52:00,55.0,51.0,30.45,SSW,205,0.0,-999.0,87,-99.99,,,-99.99,,2013-04-27 05:52:00,
2013-04-27 02:02:00,55.0,52.0,30.46,SSW,205,0.0,-999.0,88,-99.99,,,-99.99,,2013-04-27 06:02:00,
2013-04-27 02:12:00,55.0,52.0,30.46,SSW,205,0.0,-999.0,88,-99.99,,,-99.99,,2013-04-27 06:12:00,
2013-04-27 02:22:00,54.0,51.0,30.44,SSW,205,0.0,-999.0,88,-99.99,,,-99.99,,2013-04-27 06:22:00,
2013-04-27 02:32:00,54.0,51.0,30.44,SSW,205,0.0,-999.0,88,-99.99,,,-99.99,,2013-04-27 06:32:00,
2013-04-27 02:42:00,54.0,51.0,30.44,SSW,205,0.0,-999.0,88,-99.99,,,-99.99,,2013-04-27 06:42:00,
2013-04-27 02:52:00,54.0,51.0,30.44,SSW,205,0.0,-999.0,89,-99.99,,,-99.99,,2013-04-27 06:52:00,
2013-04-27 03:01:00,54.0,51.0,30.44,SSW,205,0.0,-999.0,89,-99.99,,,-99.99,,2013-04-27 07:01:00,
2013-04-27 03:11:00,54.0,51.0,30.44,SSW,205,0.0,-999.0,89,-99.99,,,-99.99,,2013-04-27 07:11:00,
2013-04-27 03:21:00,54.0,52.0,30.43,SSW,205,0.0,-999.0,92,-99.99,,,-99.99,,2013-04-27 07:21:00,
2013-04-27 03:32:00,54.0,51.0,30.42,SSW,205,0.0,-999.0,89,-99.99,,,-99.99,,2013-04-27 07:32:00,
2013-04-27 03:42:00,54.0,51.0,30.42,SSW,205,0.0,-999.0,89,-99.99,,,-99.99,,2013-04-27 07:42:00,
2013-04-27 03:52:00,54.0,51.0,30.42,SSW,205,0.0,-999.0,90,-99.99,,,-99.99,,2013-04-27 07:52:00,
2013-04-27 04:01:00,54.0,51.0,30.42,SSW,205,0.0,-999.0,90,-99.99,,,-99.99,,2013-04-27 08:01:00,
2013-04-27 04:11:00,54.0,51.0,30.42,SSW,205,0.0,-999.0,90,-99.99,,,-99.99,,2013-04-27 08:11:00,
2013-04-27 04:21:00,54.0,51.0,30.42,SSW,205,0.0,-999.0,90,-99.99,,,-99.99,,2013-04-27 08:21:00,
2013-04-27 04:33:00,54.0,51.0,30.42,SSW,205,0.0,-999.0,90,-99.99,,,-99.99,,2013-04-27 08:33:00,
2013-04-27 04:42:00,54.0,51.0,30.42,SSW,205,0.0,-999.0,90,-99.99,,,-99.99,,2013-04-27 08:42:00,
2013-04-27 04:52:00,54.0,51.0,30.42,SSW,205,0.0,-999.0,91,-99.99,,,-99.99,,2013-04-27 08:52:00,
2013-04-27 05:01:00,54.0,51.0,30.42,SSW,205,0.0,-999.0,91,-99.99,,,-99.99,,2013-04-27 09:01:00,
2013-04-27 05:11:00,54.0,51.0,30.42,SSW,205,0.0,-999.0,91,-99.99,,,-99.99,,2013-04-27 09:11:00,
2013-04-27 05:21:00,54.0,51.0,30.42,SSW,205,0.0,-999.0,91,-99.99,,,-99.99,,2013-04-27 09:21:00,
2013-04-27 05:33:00,54.0,51.0,30.42,SSW,205,0.0,-999.0,91,-99.99,,,-99.99,,2013-04-27 09:33:00,
2013-04-27 05:42:00,54.0,51.0,30.42,SSW,205,0.0,-999.0,91,-99.99,,,-99.99,,2013-04-27 09:42:00,
2013-04-27 05:53:00,54.0,51.0,30.42,SSW,205,0.0,-999.0,91,-99.99,,,-99.99,,2013-04-27 09:53:00,
2013-04-27 06:03:00,54.0,51.0,30.42,SSW,205,0.0,-999.0,91,-99.99,,,-99.99,,2013-04-27 10:03:00,
2013-04-27 06:12:00,54.0,51.0,30.42,SSW,205,0.0,-999.0,91,-99.99,,,-99.99,,2013-04-27 10:12:00,
2013-04-27 06:22:00,53.0,50.0,30.42,SSW,205,0.0,-999.0,90,-99.99,,,-99.99,,2013-04-27 10:22:00,
2013-04-27 06:32:00,53.0,50.0,30.42,SSW,205,0.0,-999.0,90,-99.99,,,-99.99,,2013-04-27 10:32:00,
2013-04-27 06:42:00,53.0,50.0,30.42,SSW,205,0.0,-999.0,90,-99.99,,,-99.99,,2013-04-27 10:42:00,
2013-04-27 06:52:00,53.0,50.0,30.43,SSW,205,0.0,-999.0,89,-99.99,,,-99.99,,2013-04-27 10:52:00,
2013-04-27 07:02:00,53.0,50.0,30.43,SSW,205,0.0,-999.0,89,-99.99,,,-99.99,,2013-04-27 11:02:00,
2013-04-27 07:12:00,53.0,50.0,30.44,SSW,205,0.0,-999.0,90,-99.99,,,-99.99,,2013-04-27 11:12:00,
2013-04-27 07:22:00,53.0,50.0,30.44,SSW,205,0.0,-999.0,90,-99.99,,,-99.99,,2013-04-27 11:22:00,
2013-04-27 07:32:00,53.0,50.0,30.44,SSW,205,0.0,-999.0,90,-99.99,,,-99.99,,2013-04-27 11:32:00,
2013-04-27 07:42:00,53.0,50.0,30.44,SSW,205,0.0,-999.0,90,-99.99,,,-99.99,,2013-04-27 11:42:00,
2013-04-27 07:52:00,53.0,50.0,30.44,SSW,205,0.0,-999.0,90,-99.99,,,-99.99,,2013-04-27 11:52:00,